Stündliche Wetter Holubynka

Heute, 21 Juni, Montag

Zeit Temperatur Niederschläge Wind Luftdruck Luftfeuchtigkeit
00:00 +21°C° 0 mm 1 m/S 737 mmHg 89%
01:00 +21°C° 0 mm 1 m/S 737 mmHg 89%
02:00 +21°C° 0 mm 1 m/S 737 mmHg 89%
03:00 +21°C° 0 mm 1 m/S 737 mmHg 89%
04:00 +21°C° 0 mm 1 m/S 737 mmHg 89%
05:00 +20°C° 0 mm 2 m/S 737 mmHg 89%
06:00 +23°C° 0 mm 2 m/S 737 mmHg 82%
07:00 +25°C° 0 mm 2 m/S 737 mmHg 74%
08:00 +27°C° 0 mm 2 m/S 737 mmHg 67%
09:00 +28°C° 0 mm 2 m/S 737 mmHg 64%
10:00 +29°C° 0 mm 2 m/S 737 mmHg 60%
11:00 +30°C° 0 mm 2 m/S 737 mmHg 56%
12:00 +30°C° 0 mm 2 m/S 737 mmHg 57%
13:00 +30°C° 0 mm 2 m/S 737 mmHg 57%
14:00 +30°C° 0 mm 2 m/S 737 mmHg 58%
15:00 +29°C° 0.1 mm 2 m/S 737 mmHg 62%
16:00 +28°C° 0.1 mm 2 m/S 737 mmHg 65%
17:00 +27°C° 0.1 mm 2 m/S 737 mmHg 69%
18:00 +25°C° 0.1 mm 2 m/S 737 mmHg 75%
19:00 +24°C° 0.1 mm 2 m/S 737 mmHg 82%
20:00 +21°C° 0.1 mm 2 m/S 737 mmHg 88%
21:00 +21°C° 0 mm 2 m/S 737 mmHg 88%
22:00 +22°C° 0 mm 1 m/S 737 mmHg 87%
23:00 +22°C° 0 mm 1 m/S 736 mmHg 87%

Morgen, 22 Juni, Dienstag

Zeit Temperatur Niederschläge Wind Luftdruck Luftfeuchtigkeit
00:00 +22°C° 0 mm 1 m/S 736 mmHg 87%
01:00 +22°C° 0 mm 1 m/S 736 mmHg 88%
02:00 +22°C° 0 mm 1 m/S 736 mmHg 88%
03:00 +22°C° 0 mm 1 m/S 736 mmHg 87%
04:00 +22°C° 0 mm 1 m/S 736 mmHg 86%
05:00 +23°C° 0 mm 1 m/S 736 mmHg 86%
06:00 +24°C° 0 mm 1 m/S 736 mmHg 80%
07:00 +26°C° 0 mm 1 m/S 737 mmHg 75%
08:00 +27°C° 0 mm 2 m/S 737 mmHg 69%
09:00 +28°C° 0 mm 2 m/S 737 mmHg 67%
10:00 +28°C° 0 mm 2 m/S 737 mmHg 65%
11:00 +29°C° 0 mm 3 m/S 737 mmHg 63%
12:00 +29°C° 0.1 mm 3 m/S 737 mmHg 64%
13:00 +29°C° 0.1 mm 3 m/S 737 mmHg 66%
14:00 +29°C° 0.1 mm 4 m/S 737 mmHg 67%
15:00 +28°C° 0.6 mm 4 m/S 737 mmHg 71%
16:00 +26°C° 0.6 mm 3 m/S 737 mmHg 75%
17:00 +25°C° 0.6 mm 3 m/S 737 mmHg 79%
18:00 +24°C° 0.4 mm 3 m/S 738 mmHg 84%
19:00 +23°C° 0.4 mm 2 m/S 738 mmHg 89%
20:00 +22°C° 0.4 mm 1 m/S 738 mmHg 93%
21:00 +22°C° 0.1 mm 1 m/S 738 mmHg 94%
22:00 +22°C° 0.1 mm 1 m/S 738 mmHg 94%
23:00 +21°C° 0.1 mm 1 m/S 738 mmHg 95%

übermorgen, 23 Juni, Mittwoch

Zeit Temperatur Niederschläge Wind Luftdruck Luftfeuchtigkeit
00:00 +21°C° 0 mm 1 m/S 738 mmHg 95%
01:00 +21°C° 0 mm 1 m/S 738 mmHg 95%
02:00 +20°C° 0 mm 2 m/S 738 mmHg 95%
03:00 +20°C° 0 mm 2 m/S 738 mmHg 95%
04:00 +21°C° 0 mm 1 m/S 738 mmHg 94%
05:00 +21°C° 0 mm 1 m/S 738 mmHg 94%
06:00 +22°C° 0.1 mm 1 m/S 738 mmHg 88%
07:00 +24°C° 0.1 mm 1 m/S 739 mmHg 82%
08:00 +25°C° 0.1 mm 1 m/S 739 mmHg 76%
09:00 +26°C° 0.1 mm 2 m/S 739 mmHg 74%
10:00 +27°C° 0.1 mm 2 m/S 739 mmHg 71%
11:00 +27°C° 0.1 mm 2 m/S 739 mmHg 69%
12:00 +27°C° 0.3 mm 2 m/S 739 mmHg 69%
13:00 +27°C° 0.3 mm 2 m/S 739 mmHg 69%
14:00 +28°C° 0.3 mm 2 m/S 739 mmHg 70%
15:00 +27°C° 1.2 mm 2 m/S 739 mmHg 75%
16:00 +25°C° 1.2 mm 2 m/S 739 mmHg 80%
17:00 +24°C° 1.2 mm 2 m/S 740 mmHg 85%
18:00 +24°C° 0.5 mm 2 m/S 740 mmHg 88%
19:00 +23°C° 0.5 mm 1 m/S 740 mmHg 92%
20:00 +22°C° 0.5 mm 1 m/S 740 mmHg 95%
21:00 +22°C° 0 mm 1 m/S 740 mmHg 95%
22:00 +22°C° 0 mm 1 m/S 740 mmHg 95%
23:00 +21°C° 0 mm 1 m/S 740 mmHg 94%

24 Juni, Donnerstag

Zeit Temperatur Niederschläge Wind Luftdruck Luftfeuchtigkeit
00:00 +21°C° 0 mm 1 m/S 740 mmHg 95%
01:00 +21°C° 0 mm 1 m/S 739 mmHg 95%
02:00 +21°C° 0 mm 1 m/S 739 mmHg 96%
03:00 +21°C° 0 mm 1 m/S 739 mmHg 95%
04:00 +21°C° 0 mm 1 m/S 740 mmHg 95%
05:00 +21°C° 0 mm 1 m/S 740 mmHg 95%
06:00 +23°C° 0 mm 1 m/S 740 mmHg 90%
07:00 +24°C° 0 mm 1 m/S 740 mmHg 84%
08:00 +26°C° 0 mm 1 m/S 740 mmHg 79%
09:00 +26°C° 0.2 mm 1 m/S 740 mmHg 76%
10:00 +27°C° 0.2 mm 1 m/S 740 mmHg 72%
11:00 +27°C° 0.2 mm 2 m/S 740 mmHg 69%
12:00 +27°C° 0.8 mm 2 m/S 740 mmHg 70%
13:00 +27°C° 0.8 mm 2 m/S 740 mmHg 71%
14:00 +27°C° 0.8 mm 2 m/S 740 mmHg 72%
15:00 +26°C° 0.7 mm 1 m/S 740 mmHg 76%
16:00 +25°C° 0.7 mm 1 m/S 741 mmHg 80%
17:00 +24°C° 0.7 mm 1 m/S 741 mmHg 85%
18:00 +23°C° 0.2 mm 1 m/S 741 mmHg 86%
19:00 +23°C° 0.2 mm 1 m/S 741 mmHg 88%
20:00 +22°C° 0.2 mm 1 m/S 741 mmHg 89%
21:00 +22°C° 0.1 mm 1 m/S 740 mmHg 90%
22:00 +21°C° 0.1 mm 1 m/S 740 mmHg 90%
23:00 +19°C° 0.1 mm 0 m/S 740 mmHg 90%

25 Juni, Freitag

Zeit Temperatur Niederschläge Wind Luftdruck Luftfeuchtigkeit
00:00 +21°C° 0 mm 1 m/S 740 mmHg 90%
01:00 +21°C° 0 mm 1 m/S 740 mmHg 89%
02:00 +21°C° 0 mm 1 m/S 740 mmHg 89%
03:00 +21°C° 0 mm 1 m/S 740 mmHg 88%
04:00 +21°C° 0 mm 1 m/S 740 mmHg 87%
05:00 +19°C° 0 mm 0 m/S 740 mmHg 86%
06:00 +21°C° 0 mm 0 m/S 740 mmHg 81%
07:00 +22°C° 0 mm 0 m/S 740 mmHg 76%
08:00 +24°C° 0 mm 0 m/S 740 mmHg 70%
09:00 +27°C° 0 mm 1 m/S 740 mmHg 66%
10:00 +28°C° 0 mm 1 m/S 740 mmHg 61%
11:00 +29°C° 0 mm 2 m/S 740 mmHg 57%
12:00 +28°C° 0.5 mm 2 m/S 740 mmHg 61%
13:00 +28°C° 0.5 mm 2 m/S 740 mmHg 65%
14:00 +27°C° 0.5 mm 1 m/S 740 mmHg 69%
15:00 +27°C° 0.4 mm 1 m/S 740 mmHg 71%
16:00 +27°C° 0.4 mm 1 m/S 740 mmHg 72%
17:00 +26°C° 0.4 mm 1 m/S 739 mmHg 74%
18:00 +25°C° 0.4 mm 1 m/S 739 mmHg 80%
19:00 +23°C° 0.4 mm 1 m/S 739 mmHg 86%
20:00 +22°C° 0.4 mm 1 m/S 739 mmHg 91%
21:00 +22°C° 0.4 mm 1 m/S 739 mmHg 92%
22:00 +22°C° 0.4 mm 1 m/S 739 mmHg 92%
23:00 +21°C° 0.4 mm 1 m/S 739 mmHg 92%

26 Juni, Samstag

Zeit Temperatur Niederschläge Wind Luftdruck Luftfeuchtigkeit
00:00 +21°C° 0 mm 1 m/S 739 mmHg 92%
01:00 +21°C° 0 mm 1 m/S 739 mmHg 92%
02:00 +21°C° 0 mm 1 m/S 739 mmHg 92%
03:00 +21°C° 0 mm 1 m/S 739 mmHg 91%
04:00 +21°C° 0 mm 1 m/S 739 mmHg 90%
05:00 +21°C° 0 mm 1 m/S 739 mmHg 89%
06:00 +23°C° 0 mm 1 m/S 739 mmHg 82%
07:00 +25°C° 0 mm 1 m/S 739 mmHg 76%
08:00 +26°C° 0 mm 1 m/S 739 mmHg 69%
09:00 +27°C° 0.2 mm 1 m/S 739 mmHg 66%
10:00 +28°C° 0.2 mm 2 m/S 739 mmHg 63%
11:00 +29°C° 0.2 mm 2 m/S 739 mmHg 60%
12:00 +29°C° 0.7 mm 2 m/S 739 mmHg 61%
13:00 +29°C° 0.7 mm 2 m/S 739 mmHg 62%
14:00 +28°C° 0.7 mm 3 m/S 739 mmHg 63%
15:00 +28°C° 0.4 mm 2 m/S 739 mmHg 64%
16:00 +28°C° 0.4 mm 2 m/S 739 mmHg 65%
17:00 +27°C° 0.4 mm 2 m/S 738 mmHg 67%
18:00 +26°C° 0.1 mm 2 m/S 738 mmHg 72%
19:00 +24°C° 0.1 mm 2 m/S 738 mmHg 78%
20:00 +23°C° 0.1 mm 1 m/S 738 mmHg 83%
21:00 +23°C° 0 mm 1 m/S 738 mmHg 84%
22:00 +22°C° 0 mm 1 m/S 738 mmHg 84%
23:00 +22°C° 0 mm 1 m/S 738 mmHg 84%
Mehr zeigen

Wir brauchen deine Erlaubnis

Meteoprog und unser Service Anbieter werden persönliche Daten aufbewahren, so wie Cookies, Geräte Bezeichnung oder ähnliche Technologien von deinem Gerät und Prozess, so wie Persönliche Daten Inhalte und Werbungen, genauso wie social Media und den Verkehr zu analysieren.

  • Aufbewahrung und/oder Zugang zu deiner Geräte Informationen.

    Cookies, Geräte Bezeichnung oder andere Informationen, können aufbewahrt oder Zugang zu deinem Gerät erhalten, für den Grund, der oben angegeben wird.

  • Personalisierte Werbung und Inhalte, Messungen, Einblick in das Publikum und Produkt Entwicklung.

    Werbungen und Inhalte können personalisiert werden, basierend auf ein Profil. Mehr Daten können besser personalisierte Werbungen und Inhalte hinzufügen. Werbung und Inhalte können gezeigt und gemessen werden. Einblicke über das Publikum, welche die Werbung gesehen haben und den Inhalt, können abgeleitet werden. So wie Daten können genutzt werden, um es zu verbessern oder die Benutzer Erfahrung zu verbessern das System und die Software.

Wenn du “Ich stimme zu” klickst, erlaubst du uns, die Cookies zu benutzen die Geräte Bezeichnung, den Web oder ähnliche Technologien zu benutzen. Deine Settings, können in deinem Gerät bei deinem Browser geändert werden.

Für den bestimmten Zweck, berechtigten Interessen beruhen darauf, mehr als auf den Inhalt. Du kannst mehr darüber in unseren Privaten und Cookie Politik lesen.